Location: Austin
(30.3000°N, 97.7500°W)
Time: 05:52:25
(UTC-06:00)

USA 238 - Pass Details

Date: 05 February 2026
Orbit: 883 x 1328 km, 63.4° (Epoch: 10 January)

Event Time Altitude Azimuth Distance (km) Brightness Sun altitude
Exits shadow 05:29:23 50° 304° (NW) 1,176 3.5 -24.0°
Drops below altitude 10° 05:35:32 10° 18° (NNE) 2,757 6.0 -22.7°
Sets 05:38:20 0° 24° (NNE) 3,775 6.8 -22.1°
